Project,Study,Ord_Occ,Event_Num,Date_Time_UTC,Date_Time_PST,Lat_Dec,Lon_Dec,Sta_ID,Line,Sta,Depth,Pressure,Temp0,Temp1,Salt0,CorrSalt0,Salt1,CorrSalt1,O2ml/L,AveCorrO2ml/L,StaCorrO2ml/L,FluorV,AveEstChl,StaEstChl,ISUSV,AveEstNO3,StaEstNO3,SigThetaTS0,SigThetaTS1,BAT,XMiss,SPAR,PAR,BTL_Depth,BTL_Temp,BTL_Salt,BTL_O2ml/L,BTL_Chl,BTL_Pha,BTL_NO3
CalCOFI,0707NH,026,,04-Jul-2007 06:58:24,03-Jul-2007 22:58:24,32.92218,-118.93850,090.0 045.0,090.0,045.0,522.000,526.372,5.9441,5.9434,34.3409,34.3423,34.3456,34.3433,0.31938,0.28,0.32,0.0251,,,2.1882,41.81,39.721,27.0447,27.0485,0.3705,91.1529,4.7068e+00,9.9990e+03,,,,,,,
CalCOFI,0707NH,026,,04-Jul-2007 06:58:26,03-Jul-2007 22:58:26,32.92218,-118.93850,090.0 045.0,090.0,045.0,521.000,525.362,5.9459,5.9455,34.3410,34.3424,34.3457,34.3434,0.31861,0.28,0.32,0.0266,,,2.0818,39.54,37.365,27.0445,27.0482,0.3708,91.1461,4.7068e+00,9.9990e+03,,,,,,,
CalCOFI,0707NH,026,,04-Jul-2007 06:58:32,03-Jul-2007 22:58:32,32.92219,-118.93854,090.0 045.0,090.0,045.0,520.000,524.352,5.9473,5.9470,34.3410,34.3424,34.3456,34.3433,0.31826,0.28,0.32,0.0259,,,2.1776,41.58,39.486,27.0443,27.0480,0.3707,91.1478,4.7569e+00,9.9990e+03,520,5.95 ,34.343,  .21,,,40.2
CalCOFI,0707NH,026,,04-Jul-2007 06:58:39,03-Jul-2007 22:58:39,32.92220,-118.93856,090.0 045.0,090.0,045.0,519.000,523.343,5.9497,5.9485,34.3409,34.3423,34.3455,34.3432,0.31713,0.27,0.32,0.0255,,,2.2081,42.23,40.161,27.0439,27.0477,0.3703,91.1565,4.6208e+00,9.9990e+03,,,,,,,
CalCOFI,0707NH,026,,04-Jul-2007 06:58:40,03-Jul-2007 22:58:40,32.92222,-118.93856,090.0 045.0,090.0,045.0,518.000,522.333,5.9522,5.9514,34.3410,34.3424,34.3456,34.3433,0.31710,0.27,0.32,0.0259,,,2.1895,41.83,39.749,27.0437,27.0474,0.3703,91.1581,4.6545e+00,9.9990e+03,,,,,,,
CalCOFI,0707NH,026,,04-Jul-2007 06:58:41,03-Jul-2007 22:58:41,32.92222,-118.93856,090.0 045.0,090.0,045.0,517.000,521.323,5.9558,5.9552,34.3407,34.3421,34.3453,34.3430,0.31789,0.27,0.32,0.0258,,,2.2359,42.82,40.777,27.0430,27.0466,0.3717,91.1256,4.7678e+00,9.9990e+03,,,,,,,
CalCOFI,0707NH,026,,04-Jul-2007 06:58:42,03-Jul-2007 22:58:42,32.92224,-118.93856,090.0 045.0,090.0,045.0,516.000,520.314,5.9611,5.9605,34.3400,34.3414,34.3444,34.3421,0.31900,0.28,0.32,0.0255,,,2.1586,41.17,39.065,27.0417,27.0453,0.3708,91.1462,4.7578e+00,9.9990e+03,,,,,,,
CalCOFI,0707NH,026,,04-Jul-2007 06:58:44,03-Jul-2007 22:58:44,32.92224,-118.93858,090.0 045.0,090.0,045.0,515.000,519.304,5.9664,5.9659,34.3400,34.3414,34.3444,34.3421,0.31629,0.27,0.32,0.0256,,,2.1376,40.73,38.600,27.0410,27.0446,0.3702,91.1589,4.7991e+00,9.9990e+03,,,,,,,
CalCOFI,0707NH,026,,04-Jul-2007 06:58:45,03-Jul-2007 22:58:45,32.92222,-118.93858,090.0 045.0,090.0,045.0,514.000,518.295,5.9728,5.9716,34.3394,34.3408,34.3441,34.3418,-9.990e-29,,0.32,0.0260,,,2.1524,41.04,38.928,27.0398,27.0436,0.3705,91.1538,4.6060e+00,9.9990e+03,,,,,,,
CalCOFI,0707NH,026,,04-Jul-2007 06:58:47,03-Jul-2007 22:58:47,32.92223,-118.93859,090.0 045.0,090.0,045.0,513.000,517.285,5.9721,5.9720,34.3390,34.3404,34.3432,34.3409,0.32129,0.28,0.33,0.0254,,,2.1521,41.04,38.921,27.0395,27.0429,0.3705,91.1536,4.7222e+00,9.9990e+03,,,,,,,
CalCOFI,0707NH,026,,04-Jul-2007 06:58:50,03-Jul-2007 22:58:50,32.92225,-118.93858,090.0 045.0,090.0,045.0,512.000,516.275,5.9745,5.9701,34.3365,34.3379,34.3428,34.3405,0.32570,0.28,0.33,0.0255,,,2.1779,41.59,39.493,27.0372,27.0427,0.3699,91.1661,4.5860e+00,9.9990e+03,,,,,,,
CalCOFI,0707NH,026,,04-Jul-2007 06:58:51,03-Jul-2007 22:58:51,32.92226,-118.93859,090.0 045.0,090.0,045.0,511.000,515.266,5.9753,5.9748,34.3356,34.3370,34.3401,34.3378,0.32703,0.28,0.33,0.0251,,,2.2052,42.17,40.097,27.0364,27.0400,0.3693,91.1798,4.8027e+00,9.9990e+03,,,,,,,
CalCOFI,0707NH,026,,04-Jul-2007 06:58:52,03-Jul-2007 22:58:52,32.92226,-118.93860,090.0 045.0,090.0,045.0,510.000,514.256,5.9765,5.9758,34.3353,34.3367,34.3397,34.3374,0.32869,0.29,0.33,0.0253,,,2.2038,42.14,40.066,27.0360,27.0395,0.3699,91.1659,4.6472e+00,9.9990e+03,,,,,,,
CalCOFI,0707NH,026,,04-Jul-2007 06:58:53,03-Jul-2007 22:58:53,32.92226,-9.990e-29,090.0 045.0,090.0,045.0,509.000,513.246,5.9776,5.9770,34.3351,34.3365,34.3396,34.3373,0.33065,0.29,0.34,0.0252,,,2.1451,40.89,38.766,27.0357,27.0393,0.3697,91.1703,4.7229e+00,9.9990e+03,,,,,,,
CalCOFI,0707NH,026,,04-Jul-2007 06:58:54,03-Jul-2007 22:58:54,32.92225,-118.93862,090.0 045.0,090.0,045.0,508.000,512.237,5.9778,5.9768,34.3350,34.3364,34.3395,34.3372,0.33241,0.29,0.34,0.0255,,,2.1769,41.56,39.471,27.0356,27.0393,0.3695,91.1764,4.7236e+00,9.9990e+03,,,,,,,
CalCOFI,0707NH,026,,04-Jul-2007 06:58:57,03-Jul-2007 22:58:57,32.92226,-118.93862,090.0 045.0,090.0,045.0,507.000,511.227,5.9778,5.9770,34.3350,34.3364,34.3395,34.3372,0.33477,0.29,0.34,0.0258,,,2.1788,41.61,39.513,27.0356,27.0392,0.3695,91.1748,4.9702e+00,9.9990e+03,,,,,,,
CalCOFI,0707NH,026,,04-Jul-2007 06:58:58,03-Jul-2007 22:58:58,32.92228,-118.93862,090.0 045.0,090.0,045.0,506.000,510.218,5.9820,5.9811,34.3344,34.3358,34.3388,34.3365,0.33749,0.30,0.34,0.0256,,,2.1497,40.98,38.868,27.0346,27.0382,0.3685,91.2004,4.2591e+00,9.9990e+03,,,,,,,
CalCOFI,0707NH,026,,04-Jul-2007 06:58:58,03-Jul-2007 22:58:58,32.92228,-118.93860,090.0 045.0,090.0,045.0,505.000,509.208,5.9888,5.9867,34.3333,34.3347,34.3379,34.3356,0.33797,0.30,0.34,0.0252,,,2.1501,40.99,38.877,27.0329,27.0368,0.3688,91.1933,4.5167e+00,9.9990e+03,,,,,,,
CalCOFI,0707NH,026,,04-Jul-2007 06:58:59,03-Jul-2007 22:58:59,32.92228,-118.93860,090.0 045.0,090.0,045.0,504.000,508.199,5.9961,5.9957,34.3323,34.3337,34.3371,34.3348,0.34123,0.30,0.35,0.0251,,,2.1959,41.97,39.891,27.0311,27.0350,0.3698,91.1707,4.5586e+00,9.9990e+03,,,,,,,
CalCOFI,0707NH,026,,04-Jul-2007 06:59:00,03-Jul-2007 22:59:00,32.92228,-118.93860,090.0 045.0,090.0,045.0,503.000,507.189,6.0056,6.0043,34.3315,34.3329,34.3359,34.3336,0.34242,0.30,0.35,0.0257,,,2.2269,42.63,40.577,27.0293,27.0330,0.3696,91.1753,4.5857e+00,9.9990e+03,,,,,,,
CalCOFI,0707NH,026,,04-Jul-2007 06:59:01,03-Jul-2007 22:59:01,32.92228,-118.93862,090.0 045.0,090.0,045.0,502.000,506.180,6.0211,6.0202,34.3301,34.3315,34.3347,34.3324,0.34395,0.30,0.35,0.0254,,,2.2006,42.07,39.995,27.0262,27.0299,0.3686,91.1972,5.0016e+00,9.9990e+03,,,,,,,
CalCOFI,0707NH,026,,04-Jul-2007 06:59:02,03-Jul-2007 22:59:02,32.92228,-118.93862,090.0 045.0,090.0,045.0,501.000,505.170,6.0276,6.0267,34.3296,34.3310,34.3339,34.3316,0.34668,0.30,0.35,0.0258,,,2.1708,41.43,39.335,27.0250,27.0285,0.3685,91.2009,4.5743e+00,9.9990e+03,,,,,,,
CalCOFI,0707NH,026,,04-Jul-2007 06:59:03,03-Jul-2007 22:59:03,32.92230,-118.93862,090.0 045.0,090.0,045.0,500.000,504.160,6.0330,6.0316,34.3295,34.3309,34.3337,34.3314,0.34796,0.31,0.35,0.0258,,,2.1570,41.14,39.030,27.0242,27.0277,0.3683,91.2056,4.9472e+00,9.9990e+03,,,,,,,
CalCOFI,0707NH,026,,04-Jul-2007 06:59:04,03-Jul-2007 22:59:04,32.92230,-118.93862,090.0 045.0,090.0,045.0,499.000,503.151,6.0346,6.0339,34.3293,34.3307,34.3335,34.3312,0.34941,0.31,0.36,0.0257,,,2.1793,41.62,39.524,27.0238,27.0273,0.3682,91.2061,4.5474e+00,9.9990e+03,,,,,,,
CalCOFI,0707NH,026,,04-Jul-2007 06:59:05,03-Jul-2007 22:59:05,32.92230,-118.93862,090.0 045.0,090.0,045.0,498.000,502.141,6.0418,6.0407,34.3287,34.3301,34.3332,34.3309,0.35147,0.31,0.36,0.0259,,,2.1461,40.91,38.789,27.0225,27.0261,0.3689,91.1903,4.7669e+00,9.9990e+03,,,,,,,
CalCOFI,0707NH,026,,04-Jul-2007 06:59:06,03-Jul-2007 22:59:06,32.92231,-118.93862,090.0 045.0,090.0,045.0,497.000,501.132,6.0529,6.0520,34.3279,34.3293,34.3321,34.3298,0.35212,0.31,0.36,0.0252,,,2.1295,40.55,38.421,27.0204,27.0239,0.3687,91.1960,4.7641e+00,9.9990e+03,,,,,,,
CalCOFI,0707NH,026,,04-Jul-2007 06:59:07,03-Jul-2007 22:59:07,32.92232,-118.93863,090.0 045.0,090.0,045.0,496.000,500.122,6.0599,6.0598,34.3273,34.3287,34.3316,34.3293,0.35409,0.31,0.36,0.0252,,,2.1690,41.40,39.296,27.0190,27.0225,0.3688,91.1933,4.8381e+00,9.9990e+03,,,,,,,
CalCOFI,0707NH,026,,04-Jul-2007 06:59:08,03-Jul-2007 22:59:08,32.92232,-118.93864,090.0 045.0,090.0,045.0,495.000,499.113,6.0636,6.0631,34.3271,34.3285,34.3313,34.3290,0.35522,0.31,0.36,0.0270,,,2.2101,42.27,40.206,27.0184,27.0218,0.3686,91.1969,4.9391e+00,9.9990e+03,,,,,,,
CalCOFI,0707NH,026,,04-Jul-2007 06:59:09,03-Jul-2007 22:59:09,32.92232,-118.93864,090.0 045.0,090.0,045.0,494.000,498.103,6.0627,6.0623,34.3273,34.3287,34.3313,34.3290,0.35533,0.31,0.36,0.0257,,,2.1826,41.69,39.597,27.0186,27.0219,0.3688,91.1921,4.9916e+00,9.9990e+03,,,,,,,
CalCOFI,0707NH,026,,04-Jul-2007 06:59:10,03-Jul-2007 22:59:10,32.92232,-118.93864,090.0 045.0,090.0,045.0,493.000,497.094,6.0638,6.0635,34.3271,34.3285,34.3312,34.3289,0.35531,0.31,0.36,0.0253,,,2.1463,40.91,38.793,27.0184,27.0216,0.3693,91.1812,4.6176e+00,9.9990e+03,,,,,,,
CalCOFI,0707NH,026,,04-Jul-2007 06:59:11,03-Jul-2007 22:59:11,32.92232,-118.93864,090.0 045.0,090.0,045.0,492.000,496.084,6.0634,6.0632,34.3271,34.3285,34.3311,34.3288,0.35531,0.31,0.36,0.0253,,,2.1423,40.83,38.705,27.0184,27.0216,0.3693,91.1822,4.6328e+00,9.9990e+03,,,,,,,
CalCOFI,0707NH,026,,04-Jul-2007 06:59:12,03-Jul-2007 22:59:12,32.92232,-118.93865,090.0 045.0,090.0,045.0,491.000,495.075,6.0638,6.0632,34.3270,34.3284,34.3312,34.3289,0.35624,0.31,0.36,0.0254,,,2.1422,40.82,38.702,27.0183,27.0217,0.3695,91.1777,4.4943e+00,9.9990e+03,,,,,,,
CalCOFI,0707NH,026,,04-Jul-2007 06:59:13,03-Jul-2007 22:59:13,-9.990e-29,-118.93866,090.0 045.0,090.0,045.0,490.000,494.065,6.0637,6.0629,34.3269,34.3283,34.3311,34.3288,0.35680,0.32,0.36,0.0254,,,2.1797,41.62,39.532,27.0182,27.0216,0.3682,91.2057,4.6516e+00,9.9990e+03,,,,,,,
CalCOFI,0707NH,026,,04-Jul-2007 06:59:14,03-Jul-2007 22:59:14,-9.990e-29,-118.93866,090.0 045.0,090.0,045.0,489.000,493.056,6.0630,6.0629,34.3271,34.3285,34.3310,34.3287,0.35698,0.32,0.36,0.0258,,,2.1285,40.53,38.399,27.0184,27.0215,0.3685,91.1990,4.6300e+00,9.9990e+03,,,,,,,
CalCOFI,0707NH,026,,04-Jul-2007 06:59:14,03-Jul-2007 22:59:14,-9.990e-29,-118.93866,090.0 045.0,090.0,045.0,488.000,492.046,6.0632,6.0632,34.3269,34.3283,34.3311,34.3288,0.35716,0.32,0.36,0.0260,,,2.1757,41.54,39.444,27.0182,27.0215,0.3691,91.1860,4.8939e+00,9.9990e+03,,,,,,,
CalCOFI,0707NH,026,,04-Jul-2007 06:59:15,03-Jul-2007 22:59:15,-9.990e-29,-118.93866,090.0 045.0,090.0,045.0,487.000,491.037,6.0634,6.0628,34.3269,34.3283,34.3311,34.3288,0.35646,0.32,0.36,0.0257,,,2.2145,42.37,40.303,27.0181,27.0215,0.3687,91.1958,4.5994e+00,9.9990e+03,,,,,,,
CalCOFI,0707NH,026,,04-Jul-2007 06:59:17,03-Jul-2007 22:59:17,-9.990e-29,-118.93866,090.0 045.0,090.0,045.0,486.000,490.027,6.0635,6.0630,34.3269,34.3283,34.3310,34.3287,0.35776,0.32,0.36,0.0268,,,2.1688,41.39,39.291,27.0182,27.0215,0.3691,91.1849,4.8491e+00,9.9990e+03,,,,,,,
CalCOFI,0707NH,026,,04-Jul-2007 06:59:18,03-Jul-2007 22:59:18,-9.990e-29,-118.93866,090.0 045.0,090.0,045.0,485.000,489.018,6.0679,6.0677,34.3269,34.3283,34.3311,34.3288,0.35773,0.32,0.36,0.0264,,,2.1232,40.42,38.282,27.0176,27.0209,0.3685,91.1988,4.9542e+00,9.9990e+03,,,,,,,
CalCOFI,0707NH,026,,04-Jul-2007 06:59:18,03-Jul-2007 22:59:18,-9.990e-29,-118.93868,090.0 045.0,090.0,045.0,484.000,488.008,6.0693,6.0689,34.3267,34.3281,34.3307,34.3284,0.35873,0.32,0.37,0.0251,,,2.1746,41.52,39.420,27.0173,27.0205,0.3698,91.1694,4.7387e+00,9.9990e+03,,,,,,,
CalCOFI,0707NH,026,,04-Jul-2007 06:59:19,03-Jul-2007 22:59:19,-9.990e-29,-118.93868,090.0 045.0,090.0,045.0,483.000,486.999,6.0689,6.0687,34.3268,34.3282,34.3308,34.3285,0.35802,0.32,0.36,0.0254,,,2.1841,41.72,39.630,27.0174,27.0206,0.3690,91.1876,4.5877e+00,9.9990e+03,,,,,,,
CalCOFI,0707NH,026,,04-Jul-2007 06:59:20,03-Jul-2007 22:59:20,-9.990e-29,-118.93868,090.0 045.0,090.0,045.0,482.000,485.990,6.0827,6.0819,34.3267,34.3281,34.3314,34.3291,0.35922,0.32,0.37,0.0257,,,2.1914,41.87,39.792,27.0155,27.0193,0.3692,91.1830,4.2537e+00,9.9990e+03,,,,,,,
CalCOFI,0707NH,026,,04-Jul-2007 06:59:21,03-Jul-2007 22:59:21,32.92236,-118.93868,090.0 045.0,090.0,045.0,481.000,484.980,6.1035,6.1024,34.3266,34.3280,34.3308,34.3285,0.36064,0.32,0.37,0.0253,,,2.1965,41.98,39.904,27.0128,27.0162,0.3714,91.1320,4.5638e+00,9.9990e+03,,,,,,,
CalCOFI,0707NH,026,,04-Jul-2007 06:59:22,03-Jul-2007 22:59:22,32.92236,-9.990e-29,090.0 045.0,090.0,045.0,480.000,483.971,6.1218,6.1204,34.3260,34.3274,34.3304,34.3281,0.36124,0.32,0.37,0.0258,,,2.1512,41.02,38.902,27.0100,27.0136,0.3690,91.1884,4.6208e+00,9.9990e+03,,,,,,,
CalCOFI,0707NH,026,,04-Jul-2007 06:59:23,03-Jul-2007 22:59:23,32.92238,-9.990e-29,090.0 045.0,090.0,045.0,479.000,482.961,6.1371,6.1317,34.3249,34.3263,34.3295,34.3272,0.36219,0.32,0.37,0.0263,,,2.1499,40.99,38.873,27.0072,27.0115,0.3690,91.1881,4.6976e+00,9.9990e+03,,,,,,,
CalCOFI,0707NH,026,,04-Jul-2007 06:59:24,03-Jul-2007 22:59:24,32.92238,-118.93870,090.0 045.0,090.0,045.0,478.000,481.952,6.1482,6.1425,34.3252,34.3266,34.3294,34.3271,0.36366,0.32,0.37,0.0262,,,2.1518,41.03,38.915,27.0059,27.0100,0.3685,91.2007,4.4928e+00,9.9990e+03,,,,,,,
CalCOFI,0707NH,026,,04-Jul-2007 06:59:25,03-Jul-2007 22:59:25,32.92238,-118.93870,090.0 045.0,090.0,045.0,477.000,480.942,6.1583,6.1578,34.3250,34.3264,34.3289,34.3266,-9.990e-29,,0.37,0.0254,,,2.1602,41.21,39.101,27.0045,27.0077,0.3682,91.2057,4.7147e+00,9.9990e+03,,,,,,,
CalCOFI,0707NH,026,,04-Jul-2007 06:59:26,03-Jul-2007 22:59:26,32.92238,-118.93870,090.0 045.0,090.0,045.0,476.000,479.933,6.1685,6.1678,34.3251,34.3265,34.3292,34.3269,-9.990e-29,,0.37,0.0251,,,2.1912,41.87,39.787,27.0033,27.0066,0.3684,91.2020,4.7986e+00,9.9990e+03,,,,,,,
CalCOFI,0707NH,026,,04-Jul-2007 06:59:27,03-Jul-2007 22:59:27,32.92238,-118.93870,090.0 045.0,090.0,045.0,475.000,478.923,6.1789,6.1775,34.3254,34.3268,34.3295,34.3272,-9.990e-29,,0.37,0.0258,,,2.1571,41.14,39.032,27.0022,27.0056,0.3688,91.1925,4.3854e+00,9.9990e+03,,,,,,,
CalCOFI,0707NH,026,,04-Jul-2007 06:59:28,03-Jul-2007 22:59:28,32.92239,-118.93870,090.0 045.0,090.0,045.0,474.000,477.914,6.1840,6.1826,34.3256,34.3270,34.3292,34.3269,-9.990e-29,,0.37,0.0260,,,2.1921,41.89,39.807,27.0017,27.0047,0.3699,91.1673,4.9538e+00,9.9990e+03,,,,,,,
CalCOFI,0707NH,026,,04-Jul-2007 06:59:29,03-Jul-2007 22:59:29,32.92240,-118.93870,090.0 045.0,090.0,045.0,473.000,476.905,6.1908,6.1894,34.3255,34.3269,34.3295,34.3272,0.36509,0.32,0.37,0.0255,,,2.1620,41.25,39.141,27.0007,27.0041,0.3681,91.2086,4.8452e+00,9.9990e+03,,,,,,,
CalCOFI,0707NH,026,,04-Jul-2007 06:59:30,03-Jul-2007 22:59:30,32.92240,-118.93870,090.0 045.0,090.0,045.0,472.000,475.895,6.1983,6.1980,34.3252,34.3266,34.3291,34.3268,0.36586,0.33,0.37,0.0251,,,2.2155,42.39,40.325,26.9995,27.0027,0.3682,91.2063,5.0548e+00,9.9990e+03,,,,,,,
CalCOFI,0707NH,026,,04-Jul-2007 06:59:31,03-Jul-2007 22:59:31,32.92240,-118.93871,090.0 045.0,090.0,045.0,471.000,474.886,6.2055,6.2048,34.3254,34.3268,34.3294,34.3271,0.36564,0.32,0.37,0.0252,,,2.2357,42.82,40.772,26.9988,27.0020,0.3681,91.2084,4.4750e+00,9.9990e+03,,,,,,,
CalCOFI,0707NH,026,,04-Jul-2007 06:59:32,03-Jul-2007 22:59:32,32.92240,-118.93872,090.0 045.0,090.0,045.0,470.000,473.876,6.2149,6.2144,34.3259,34.3273,34.3297,34.3274,0.36599,0.33,0.37,0.0248,,,2.2102,42.27,40.208,26.9979,27.0010,0.3689,91.1909,4.7465e+00,9.9990e+03,,,,,,,
CalCOFI,0707NH,026,,04-Jul-2007 06:59:32,03-Jul-2007 22:59:32,32.92242,-118.93872,090.0 045.0,090.0,045.0,469.000,472.867,6.2210,6.2206,34.3257,34.3271,34.3296,34.3273,0.36795,0.33,0.38,0.0257,,,2.1765,41.56,39.462,26.9969,27.0001,0.3686,91.1971,5.0478e+00,9.9990e+03,,,,,,,
CalCOFI,0707NH,026,,04-Jul-2007 06:59:33,03-Jul-2007 22:59:33,32.92241,-118.93872,090.0 045.0,090.0,045.0,468.000,471.858,6.2264,6.2259,34.3249,34.3263,34.3286,34.3263,0.36716,0.33,0.37,0.0254,,,2.1770,41.57,39.473,26.9956,26.9986,0.3690,91.1873,4.8036e+00,9.9990e+03,,,,,,,
CalCOFI,0707NH,026,,04-Jul-2007 06:59:34,03-Jul-2007 22:59:34,32.92241,-118.93872,090.0 045.0,090.0,045.0,467.000,470.848,6.2309,6.2305,34.3251,34.3265,34.3288,34.3265,0.36707,0.33,0.37,0.0256,,,2.1880,41.80,39.716,26.9952,26.9982,0.3685,91.2001,4.6651e+00,9.9990e+03,,,,,,,
CalCOFI,0707NH,026,,04-Jul-2007 06:59:35,03-Jul-2007 22:59:35,32.92242,-118.93872,090.0 045.0,090.0,045.0,466.000,469.839,6.2478,6.2450,34.3263,34.3277,34.3305,34.3282,0.36566,0.32,0.37,0.0255,,,2.1802,41.64,39.544,26.9940,26.9977,0.3683,91.2056,4.4601e+00,9.9990e+03,,,,,,,
CalCOFI,0707NH,026,,04-Jul-2007 06:59:36,03-Jul-2007 22:59:36,32.92242,-118.93874,090.0 045.0,090.0,045.0,465.000,468.829,6.2610,6.2611,34.3271,34.3285,34.3308,34.3285,0.36625,0.33,0.37,0.0255,,,2.1506,41.00,38.888,26.9929,26.9958,0.3688,91.1929,4.3771e+00,9.9990e+03,,,,,,,
CalCOFI,0707NH,026,,04-Jul-2007 06:59:38,03-Jul-2007 22:59:38,32.92242,-118.93874,090.0 045.0,090.0,045.0,464.000,467.820,6.2616,6.2619,34.3271,34.3285,34.3308,34.3285,0.36610,0.33,0.37,0.0251,,,2.1603,41.21,39.103,26.9928,26.9957,0.3683,91.2037,4.9662e+00,9.9990e+03,,,,,,,
CalCOFI,0707NH,026,,04-Jul-2007 06:59:38,03-Jul-2007 22:59:38,-9.990e-29,-118.93872,090.0 045.0,090.0,045.0,463.000,466.811,6.2640,6.2636,34.3268,34.3282,34.3304,34.3281,0.36593,0.33,0.37,0.0247,,,2.1115,40.17,38.023,26.9923,26.9951,0.3681,91.2085,4.8463e+00,9.9990e+03,,,,,,,
CalCOFI,0707NH,026,,04-Jul-2007 06:59:39,03-Jul-2007 22:59:39,-9.990e-29,-118.93872,090.0 045.0,090.0,045.0,462.000,465.801,6.2701,6.2693,34.3259,34.3273,34.3297,34.3274,0.36743,0.33,0.37,0.0248,,,2.1643,41.30,39.192,26.9907,26.9938,0.3683,91.2036,4.7210e+00,9.9990e+03,,,,,,,
CalCOFI,0707NH,026,,04-Jul-2007 06:59:40,03-Jul-2007 22:59:40,-9.990e-29,-118.93874,090.0 045.0,090.0,045.0,461.000,464.792,6.2708,6.2700,34.3250,34.3264,34.3289,34.3266,0.36743,0.33,0.37,0.0247,,,2.1722,41.46,39.366,26.9899,26.9931,0.3684,91.2034,4.4768e+00,9.9990e+03,,,,,,,
CalCOFI,0707NH,026,,04-Jul-2007 06:59:41,03-Jul-2007 22:59:41,32.92244,-118.93874,090.0 045.0,090.0,045.0,460.000,463.783,6.2754,6.2742,34.3251,34.3265,34.3288,34.3265,0.36878,0.33,0.38,0.0256,,,2.1528,41.05,38.937,26.9894,26.9924,0.3680,91.2118,5.0378e+00,9.9990e+03,,,,,,,
CalCOFI,0707NH,026,,04-Jul-2007 06:59:43,03-Jul-2007 22:59:43,32.92244,-118.93874,090.0 045.0,090.0,045.0,459.000,462.773,6.2822,6.2817,34.3247,34.3261,34.3284,34.3261,0.37164,0.33,0.38,0.0250,,,2.1221,40.40,38.257,26.9882,26.9911,0.3684,91.2031,4.3522e+00,9.9990e+03,,,,,,,
CalCOFI,0707NH,026,,04-Jul-2007 06:59:43,03-Jul-2007 22:59:43,32.92244,-118.93874,090.0 045.0,090.0,045.0,458.000,461.764,6.2853,6.2848,34.3228,34.3242,34.3265,34.3242,0.37207,0.33,0.38,0.0251,,,2.1311,40.59,38.457,26.9863,26.9893,0.3683,91.2045,4.7954e+00,9.9990e+03,,,,,,,
CalCOFI,0707NH,026,,04-Jul-2007 06:59:44,03-Jul-2007 22:59:44,32.92244,-118.93874,090.0 045.0,090.0,045.0,457.000,460.754,6.2920,6.2915,34.3212,34.3226,34.3249,34.3226,0.37439,0.33,0.38,0.0251,,,2.1238,40.43,38.295,26.9841,26.9871,0.3682,91.2074,4.7544e+00,9.9990e+03,,,,,,,
CalCOFI,0707NH,026,,04-Jul-2007 06:59:45,03-Jul-2007 22:59:45,32.92244,-118.93874,090.0 045.0,090.0,045.0,456.000,459.745,6.3033,6.3025,34.3203,34.3217,34.3242,34.3219,0.37586,0.34,0.38,0.0258,,,2.1145,40.23,38.089,26.9820,26.9851,0.3683,91.2035,4.7132e+00,9.9990e+03,,,,,,,
CalCOFI,0707NH,026,,04-Jul-2007 06:59:46,03-Jul-2007 22:59:46,32.92245,-9.990e-29,090.0 045.0,090.0,045.0,455.000,458.736,6.3073,6.3069,34.3196,34.3210,34.3232,34.3209,0.37734,0.34,0.38,0.0249,,,2.1402,40.78,38.658,26.9808,26.9837,0.3686,91.1974,4.6850e+00,9.9990e+03,,,,,,,
CalCOFI,0707NH,026,,04-Jul-2007 06:59:47,03-Jul-2007 22:59:47,32.92246,-118.93876,090.0 045.0,090.0,045.0,454.000,457.727,6.3147,6.3131,34.3191,34.3205,34.3229,34.3206,0.38064,0.34,0.39,0.0256,,,2.1293,40.55,38.417,26.9795,26.9828,0.3679,91.2143,4.8300e+00,9.9990e+03,,,,,,,
CalCOFI,0707NH,026,,04-Jul-2007 06:59:49,03-Jul-2007 22:59:49,32.92246,-118.93876,090.0 045.0,090.0,045.0,453.000,456.717,6.3222,6.3205,34.3186,34.3200,34.3223,34.3200,0.38151,0.34,0.39,0.0253,,,2.0766,39.43,37.250,26.9781,26.9812,0.3681,91.2085,4.5227e+00,9.9990e+03,,,,,,,
CalCOFI,0707NH,026,,04-Jul-2007 06:59:50,03-Jul-2007 22:59:50,32.92246,-118.93876,090.0 045.0,090.0,045.0,452.000,455.708,6.3231,6.3222,34.3185,34.3199,34.3220,34.3197,0.38328,0.34,0.39,0.0257,,,2.0973,39.87,37.708,26.9779,26.9808,0.3677,91.2180,4.6709e+00,9.9990e+03,,,,,,,
CalCOFI,0707NH,026,,04-Jul-2007 06:59:51,03-Jul-2007 22:59:51,32.92246,-118.93876,090.0 045.0,090.0,045.0,451.000,454.699,6.3246,6.3232,34.3183,34.3197,34.3220,34.3197,0.38464,0.34,0.39,0.0251,,,2.1741,41.50,39.409,26.9776,26.9806,0.3684,91.2026,4.7668e+00,9.9990e+03,,,,,,,
CalCOFI,0707NH,026,,04-Jul-2007 06:59:52,03-Jul-2007 22:59:52,32.92246,-118.93876,090.0 045.0,090.0,045.0,450.000,453.689,6.3282,6.3268,34.3181,34.3195,34.3217,34.3194,0.38615,0.35,0.39,0.0251,,,2.1831,41.70,39.608,26.9769,26.9800,0.3684,91.2025,4.6235e+00,9.9990e+03,,,,,,,
CalCOFI,0707NH,026,,04-Jul-2007 06:59:53,03-Jul-2007 22:59:53,32.92248,-118.93876,090.0 045.0,090.0,045.0,449.000,452.680,6.3377,6.3350,34.3167,34.3181,34.3208,34.3185,0.38888,0.35,0.40,0.0261,,,2.1616,41.24,39.132,26.9746,26.9782,0.3684,91.2033,4.6197e+00,9.9990e+03,,,,,,,
CalCOFI,0707NH,026,,04-Jul-2007 06:59:55,03-Jul-2007 22:59:55,32.92248,-118.93876,090.0 045.0,090.0,045.0,448.000,451.671,6.3460,6.3433,34.3145,34.3159,34.3188,34.3165,0.39361,0.35,0.40,0.0254,,,2.2015,42.09,40.015,26.9717,26.9755,0.3685,91.1992,4.7726e+00,9.9990e+03,,,,,,,
CalCOFI,0707NH,026,,04-Jul-2007 06:59:56,03-Jul-2007 22:59:56,32.92248,-118.93877,090.0 045.0,090.0,045.0,447.000,450.661,6.3610,6.3575,34.3127,34.3141,34.3167,34.3144,0.39552,0.36,0.40,0.0261,,,2.1427,40.84,38.713,26.9684,26.9720,0.3679,91.2126,4.5404e+00,9.9990e+03,,,,,,,
CalCOFI,0707NH,026,,04-Jul-2007 06:59:58,03-Jul-2007 22:59:58,32.92248,-118.93878,090.0 045.0,090.0,045.0,446.000,449.652,6.3665,6.3661,34.3121,34.3135,34.3157,34.3134,0.39903,0.36,0.41,0.0254,,,2.0977,39.88,37.717,26.9672,26.9700,0.3681,91.2079,4.6334e+00,9.9990e+03,,,,,,,
CalCOFI,0707NH,026,,04-Jul-2007 07:00:00,03-Jul-2007 23:00:00,32.92250,-9.990e-29,090.0 045.0,090.0,045.0,445.000,448.643,6.3730,6.3720,34.3116,34.3130,34.3152,34.3129,0.40233,0.36,0.41,0.0249,,,2.1022,39.97,37.817,26.9659,26.9689,0.3692,91.1837,4.6933e+00,9.9990e+03,,,,,,,
CalCOFI,0707NH,026,,04-Jul-2007 07:00:04,03-Jul-2007 23:00:04,32.92249,-118.93877,090.0 045.0,090.0,045.0,444.000,447.634,6.3853,6.3813,34.3102,34.3116,34.3141,34.3118,0.40731,0.37,0.42,0.0252,,,2.0472,38.80,36.599,26.9632,26.9668,0.3683,91.2038,4.7777e+00,9.9990e+03,,,,,,,
CalCOFI,0707NH,026,,04-Jul-2007 07:00:08,03-Jul-2007 23:00:08,32.92250,-118.93878,090.0 045.0,090.0,045.0,443.000,446.624,6.3916,6.3887,34.3094,34.3108,34.3132,34.3109,0.40981,0.37,0.42,0.0251,,,2.0941,39.80,37.637,26.9618,26.9651,0.3694,91.1924,4.7468e+00,9.9990e+03,,,,,,,
CalCOFI,0707NH,026,,04-Jul-2007 07:00:09,03-Jul-2007 23:00:09,32.92250,-118.93878,090.0 045.0,090.0,045.0,442.000,445.615,6.3961,6.3947,34.3087,34.3101,34.3124,34.3101,0.41123,0.37,0.42,0.0263,,,2.0923,39.76,37.598,26.9606,26.9637,-9.990e-29,91.1954,4.6630e+00,9.9990e+03,,,,,,,
CalCOFI,0707NH,026,,04-Jul-2007 07:00:14,03-Jul-2007 23:00:14,32.92252,-118.93878,090.0 045.0,090.0,045.0,441.000,444.606,6.3945,6.3941,34.3089,34.3103,34.3123,34.3100,0.41262,0.37,0.42,0.0249,,,2.1080,40.10,37.945,26.9609,26.9637,0.3688,91.1943,4.7049e+00,9.9990e+03,,,,,,,
CalCOFI,0707NH,026,,04-Jul-2007 07:00:18,03-Jul-2007 23:00:18,32.92252,-118.93878,090.0 045.0,090.0,045.0,440.000,443.597,6.3967,6.3973,34.3077,34.3091,34.3117,34.3094,0.41433,0.38,0.42,0.0250,,,2.0888,39.69,37.520,26.9597,26.9628,0.3687,91.1952,4.6891e+00,9.9990e+03,,,,,,,
CalCOFI,0707NH,026,,04-Jul-2007 07:00:25,03-Jul-2007 23:00:25,32.92253,-118.93879,090.0 045.0,090.0,045.0,439.000,442.587,6.3946,6.3949,34.3079,34.3093,34.3115,34.3092,0.42011,0.38,0.43,0.0249,,,2.1176,40.30,38.158,26.9601,26.9629,0.3688,91.1938,4.5600e+00,9.9990e+03,,,,,,,
CalCOFI,0707NH,026,,04-Jul-2007 07:00:26,03-Jul-2007 23:00:26,32.92254,-118.93880,090.0 045.0,090.0,045.0,438.000,441.578,6.3920,6.3911,34.3039,34.3053,34.3075,34.3052,0.42147,0.38,0.43,0.0252,,,2.1161,40.27,38.124,26.9573,26.9603,0.3687,91.1964,4.9226e+00,9.9990e+03,438,6.40 ,34.302,  .36,,,38.9